Total_Precipitation_Accumulation
1.11 1.24 1.32 1.62 1.89 2.03 2.19 2.34 2.47 2.57 2.85 3.06 3.06 2.97 2.81 2.57 2.44 2.40 2.30 2.22 2.17 2.26 2.27 2.09 1.96 1.96 1.87 1.76 1.73 1.72 1.75 1.69 1.57 1.61 1.52 1.37 1.23 1.14 1.02 0.92 0.87 0.83 0.80
1.00 1.13 1.20 1.37 1.58 1.80 2.01 2.24 2.36 2.47 2.50 2.60 2.86 3.02 3.07 2.90 2.62 2.44 2.33 2.23 2.17 2.20 2.23 2.26 2.19 2.09 2.02 1.94 1.93 1.95 1.96 1.95 1.89 1.88 1.89 1.74 1.55 1.26 1.06 1.02 0.96 0.88 0.87
0.88 0.98 1.11 1.33 1.43 1.56 1.79 2.08 2.24 2.38 2.42 2.47 2.77 3.01 3.19 3.03 2.70 2.36 2.19 2.18 2.18 2.20 2.13 2.16 2.25 2.23 2.16 2.03 1.97 1.96 1.99 2.03 2.01 1.97 2.10 1.91 1.56 1.23 1.07 0.96 0.91 0.90 0.90
0.76 0.81 0.93 1.11 1.24 1.38 1.55 1.72 1.93 2.10 2.31 2.42 2.52 2.60 2.74 2.75 2.50 2.37 2.26 2.27 2.26 2.25 2.21 2.17 2.20 2.21 2.17 2.05 2.02 1.95 1.93 1.99 2.01 1.99 1.91 1.79 1.50 1.34 1.20 1.03 0.93 0.91 0.92
0.75 0.75 0.89 1.06 1.13 1.22 1.45 1.59 1.67 1.86 2.10 2.27 2.34 2.49 2.51 2.56 2.62 2.59 2.48 2.37 2.32 2.26 2.20 2.16 2.18 2.12 2.06 2.04 2.11 2.06 2.02 2.02 1.98 1.91 1.86 1.86 1.67 1.43 1.35 1.19 1.02 0.99 0.96
0.79 0.85 0.97 1.05 1.08 1.14 1.30 1.50 1.50 1.59 1.78 2.05 2.27 2.34 2.31 2.37 2.42 2.42 2.37 2.34 2.32 2.28 2.20 2.10 2.05 2.02 2.02 2.03 2.08 2.15 2.10 2.08 2.08 2.00 1.89 1.89 1.88 1.68 1.57 1.47 1.23 1.15 1.05
0.73 0.83 0.94 0.94 0.98 1.08 1.18 1.33 1.42 1.50 1.60 1.79 2.00 2.18 2.28 2.30 2.33 2.35 2.31 2.21 2.12 2.03 2.01 2.03 1.97 1.91 1.85 1.89 1.97 2.08 2.09 2.05 2.05 2.02 1.97 1.92 1.85 1.73 1.71 1.69 1.53 1.41 1.27
0.61 0.65 0.79 0.86 0.93 1.02 1.08 1.10 1.16 1.22 1.30 1.40 1.55 1.76 2.03 2.15 2.09 2.09 2.06 2.02 1.95 1.92 1.92 1.93 1.93 1.93 1.89 1.85 1.88 1.93 1.99 2.01 1.95 1.85 1.82 1.82 1.77 1.78 1.80 1.79 1.84 1.82 1.58
0.65 0.64 0.71 0.76 0.81 0.93 1.04 1.02 1.00 1.05 1.14 1.18 1.27 1.41 1.65 1.81 1.85 1.88 1.83 1.73 1.70 1.75 1.78 1.78 1.80 1.84 1.87 1.85 1.86 1.88 1.86 1.87 1.87 1.83 1.74 1.66 1.58 1.60 1.64 1.67 1.77 1.96 1.90
0.67 0.63 0.66 0.72 0.73 0.81 0.93 0.95 0.95 0.97 1.11 1.15 1.18 1.26 1.37 1.47 1.63 1.72 1.62 1.56 1.53 1.55 1.58 1.59 1.59 1.64 1.69 1.73 1.78 1.77 1.71 1.70 1.68 1.68 1.70 1.66 1.56 1.55 1.61 1.69 1.74 1.83 1.90
0.68 0.70 0.71 0.73 0.77 0.81 0.85 0.86 0.91 0.96 1.06 1.10 1.07 1.09 1.15 1.21 1.30 1.39 1.44 1.39 1.39 1.36 1.36 1.37 1.40 1.40 1.45 1.52 1.61 1.61 1.60 1.63 1.59 1.57 1.61 1.61 1.59 1.60 1.63 1.71 1.79 1.85 1.93
0.61 0.68 0.68 0.69 0.77 0.81 0.80 0.77 0.81 0.86 0.98 1.01 0.97 0.96 1.01 1.08 1.12 1.16 1.25 1.26 1.26 1.26 1.27 1.27 1.27 1.25 1.24 1.30 1.37 1.41 1.45 1.49 1.51 1.52 1.56 1.58 1.59 1.64 1.67 1.75 1.79 1.79 1.77
0.45 0.51 0.56 0.57 0.60 0.63 0.65 0.71 0.71 0.68 0.74 0.78 0.76 0.76 0.79 0.86 0.95 1.00 1.02 1.07 1.12 1.15 1.19 1.21 1.18 1.18 1.18 1.21 1.24 1.24 1.27 1.32 1.35 1.39 1.45 1.45 1.50 1.56 1.58 1.65 1.71 1.69 1.66
0.36 0.42 0.51 0.48 0.51 0.54 0.56 0.62 0.61 0.58 0.63 0.65 0.64 0.65 0.68 0.71 0.77 0.84 0.84 0.86 0.90 0.97 1.04 1.11 1.11 1.09 1.11 1.16 1.20 1.24 1.24 1.23 1.24 1.25 1.33 1.37 1.41 1.43 1.47 1.56 1.60 1.60 1.62
0.30 0.35 0.46 0.51 0.49 0.54 0.55 0.56 0.60 0.64 0.68 0.69 0.68 0.66 0.66 0.66 0.69 0.75 0.77 0.76 0.76 0.77 0.80 0.90 0.98 1.02 1.04 1.09 1.13 1.18 1.22 1.23 1.23 1.24 1.28 1.36 1.53 1.56 1.52 1.52 1.49 1.49 1.57
0.26 0.29 0.37 0.54 0.50 0.55 0.63 0.63 0.67 0.75 0.76 0.77 0.73 0.70 0.66 0.64 0.62 0.63 0.65 0.67 0.68 0.68 0.72 0.79 0.83 0.91 0.98 1.22 1.25 1.18 1.17 1.24 1.27 1.27 1.25 1.28 1.42 1.42 1.44 1.43 1.42 1.46 1.55
0.24 0.27 0.33 0.48 0.56 0.60 0.70 0.77 0.79 0.84 0.82 0.82 0.75 0.70 0.66 0.64 0.62 0.59 0.60 0.64 0.67 0.69 0.74 0.78 0.83 0.89 1.03 1.27 1.29 1.34 1.23 1.23 1.24 1.24 1.21 1.17 1.13 1.19 1.06 1.15 1.27 1.32 1.34
0.20 0.24 0.29 0.36 0.48 0.52 0.60 0.70 0.77 0.87 0.87 0.85 0.83 0.79 0.79 0.80 0.82 0.82 0.83 0.84 0.82 0.85 0.91 0.96 0.99 1.05 1.15 1.27 1.23 1.25 1.13 1.14 1.12 1.07 1.05 1.01 0.95 0.95 0.98 1.00 1.08 1.02 1.00
0.21 0.22 0.25 0.27 0.33 0.41 0.47 0.56 0.70 0.86 0.98 1.04 1.04 1.05 1.07 1.11 1.14 1.15 1.16 1.16 1.16 1.16 1.13 1.11 1.07 1.06 1.08 1.12 1.09 1.08 1.01 1.03 0.99 0.92 0.90 0.90 0.87 0.98 1.10 1.05 1.00 0.92 0.91
0.23 0.23 0.23 0.25 0.29 0.39 0.46 0.59 0.79 0.97 1.10 1.16 1.19 1.21 1.28 1.34 1.30 1.27 1.23 1.15 1.13 1.15 1.12 1.10 1.06 1.00 0.96 0.96 0.93 0.92 0.87 0.87 0.82 0.78 0.77 0.86 0.87 1.02 1.13 1.05 1.02 0.95 0.80
0.31 0.33 0.34 0.38 0.40 0.46 0.56 0.73 0.86 1.00 1.07 1.09 1.11 1.12 1.11 1.13 1.09 1.06 1.02 0.97 0.93 0.89 0.86 0.82 0.78 0.74 0.76 0.81 0.83 0.86 0.84 0.87 0.85 0.82 0.81 0.81 0.93 1.02 1.09 1.11 1.01 0.96 0.92
0.32 0.41 0.48 0.52 0.52 0.56 0.65 0.75 0.79 0.83 0.83 0.83 0.82 0.82 0.76 0.70 0.70 0.72 0.73 0.72 0.71 0.69 0.66 0.61 0.59 0.56 0.58 0.67 0.73 0.82 0.89 0.93 0.91 0.86 0.84 0.90 1.05 1.11 1.15 1.11 1.07 1.11 1.14
0.18 0.23 0.32 0.38 0.38 0.39 0.44 0.50 0.48 0.46 0.45 0.45 0.47 0.48 0.46 0.44 0.44 0.47 0.50 0.54 0.57 0.58 0.58 0.56 0.56 0.54 0.50 0.55 0.66 0.73 0.85 0.94 0.91 0.86 0.94 1.01 1.07 1.10 1.10 1.13 1.13 1.08 1.02
0.13 0.15 0.17 0.20 0.21 0.21 0.23 0.26 0.25 0.22 0.23 0.27 0.31 0.35 0.39 0.40 0.40 0.42 0.46 0.50 0.54 0.57 0.58 0.59 0.58 0.55 0.50 0.51 0.59 0.68 0.77 0.89 0.92 0.91 0.95 0.99 0.99 0.99 1.00 1.06 1.08 1.05 1.03
0.15 0.16 0.18 0.19 0.20 0.20 0.20 0.20 0.21 0.20 0.20 0.21 0.24 0.29 0.34 0.40 0.42 0.43 0.47 0.53 0.57 0.67 0.78 0.78 0.72 0.72 0.69 0.65 0.78 0.90 0.92 0.97 1.02 1.05 1.01 0.94 0.89 0.90 0.93 0.92 0.95 1.01 1.05
0.18 0.18 0.19 0.22 0.25 0.27 0.28 0.27 0.27 0.25 0.25 0.26 0.26 0.30 0.34 0.38 0.43 0.45 0.47 0.52 0.57 0.62 0.67 0.72 0.76 0.72 0.74 0.78 0.83 0.89 0.94 1.01 1.10 1.16 1.08 0.93 0.86 0.85 0.86 0.89 0.92 0.95 1.00